{"data":{"norad_id":43272,"intl_designator":"2018-033B","name":"HYLAS 4","alt_names":[],"object_type":"PAYLOAD","status":"ACTIVE","operator":null,"country":"UK","launch_date":"2018-04-05","launch_site_code":"FRGUI","launch_vehicle":null,"mission":null,"orbit_class":"UNKNOWN","rcs_meters":null,"size_class":null,"mass_kg":null,"dimensions":null,"purposes":["comms"],"wikipedia_slug":null,"has_3d_model":false,"image_url":null,"decayed_at":null,"tle_current":{"epoch":"2026-05-25T03:34:47.012736Z","epoch_age_seconds":62187,"freshness":"FRESH","line1":"1 43272U 18033B   26145.14915524 -.00000236  00000+0  00000+0 0  9992","line2":"2 43272   0.0431 107.8993 0001194 327.2450 187.7669  1.00273639 29830","mean_motion":1.00273639,"eccentricity":0.0001194,"inclination_deg":0.0431,"raan_deg":107.8993,"arg_perigee_deg":327.245,"mean_anomaly_deg":187.7669,"bstar":0,"rev_number":2983,"period_min":1436.070351451,"perigee_km":35781.040818757,"apogee_km":35791.109632636,"semimajor_km":42164.212225697,"source":"CELESTRAK","updated_at":"2026-05-25T13:38:14.052279Z"}}}